STARLINK-4252, 53057

Orbit data source: Space-Track

STARLINK-4252, 53057 is a payload satellite owned by SpaceX/Seattle (US) in SSO that was launched on Mon, 11 Jul 2022 UTC via an FALCON 9 launch vehicle from the Air Force Western Test Range (AFWTR). Payload-class satellites include a variety of spacecraft equipped with specific instruments for various scientific and technological missions. These include communications satellites like Starlink; space stations such as the ISS; scientific satellites like the Hubble; Earth observation satellites from companies like Planet Labs, Umbra, and HawkEye 360; GPS; miniature CubeSats for education and research; and military/defense satellites.

Loading next visibility...
Identifier
53057, 2022-077Q
Orbit
SSO
Country
Flag of USUS
Related business
Manufacturer
SpaceX/Seattle
Mission
Operational Commercial Communications
Bus & Motor
STARLINK, Unknown motor
Mass
297 kg wet, ~275 kg dry
Launch date (UTC)
2022-07-11 (3 years ago)
Launch vehicle
FALCON 9
Launch site
Air Force Western Test Range (AFWTR)
Object type
Payload
Rocket body
Debris
Shape & HBR
Box + 1 Pan, 10.1 m
Radar Cross Section
13.562 m², Large (>1 m²)

Expand to show TLE details & history
Last TLE update: 1 day ago

TLE from 1 day ago
0 STARLINK-4252
1 53057U 22077Q   25349.07767890 -.00000584  00000-0 -36267-4 0  9992
2 53057  97.6009 167.8919 0001819  87.1230 273.0205 15.05644494188259
Epoch: 2025-12-15T01:51Z
TLE epoch observation values (Epoch: 2025-12-15T01:51:51.456Z)
Latitude
-0.00005°
Longitude
55.94609°
Altitude
552.527 km
Speed
7.586 km/s
True Right ascension
11h 11m 34s
True Declination
0° 00' 00"
Sunlit
Object was in daylight at epoch
Visualization orbit readout
Latitude
Unknown
Longitude
Unknown
Altitude
Unknown
Speed
Unknown
Apparent Right ascension
Unknown
Apparent Declination
Unknown
Sunlit
N/A
Visualization observer readout
Local Sidereal Time
00:19:43
Azimuth
Unknown
Elevation
Unknown
Doppler factor
Unknown
Orbital elements
Apogee altitude
547.781 km
Perigee altitude
545.262 km
Semi-major axis
6,924.658 km
Eccentricity
0.00018
Inclination
97.6009°
RAAN
167.8919°
Arg. of periapsis
87.123°
True anomaly
272.99968°
Mean anomaly
273.0205°
Eccentric anomaly
273.01009°
Mean motion
3.76657 °/min
Orbital period
95.58 mins
BSTAR
-0.000036267
Loading maneuver chart data...
Computing Atmospheric mass density...
Loading historical data...
Loading historical data...
Loading historical data...
Loading historical data...
Loading historical data...
Loading historical data...
Loading historical data...

Documentation

Showing up to 5 results
|